DECAYED
Showing default

TRSI-2, 52420 (Decayed)

Orbit data source: Space-Track

TRSI-2, 52420 was an American payload satellite in LEO that was launched on Mon, 02 May 2022 UTC via an ELECTRON launch vehicle from the Rocket Lab Launch Complex (RLLC). Payload-class satellites include a variety of spacecraft equipped with specific instruments for various scientific and technological missions. These include communications satellites like Starlink; space stations such as the ISS; scientific satellites like the Hubble; Earth observation satellites from companies like Planet Labs, Umbra, and HawkEye 360; GPS; miniature CubeSats for education and research; and military/defense satellites.

Not visible in the next 10 days
Identifier
52420, 2022-047AC
Orbit
Decayed
Country
Flag of USUS
Related business
Manufacturer
TRSI/ACMEO
Mission
Decayed Commercial Technology
Bus & Motor
POCKETQUBE 1P, Unknown motor
Mass
0.25 kg wet, 0.25 kg dry
Launch date (UTC)
2022-05-02 (3 years ago)
Launch vehicle
ELECTRON
Launch site
Rocket Lab Launch Complex (RLLC)
Object type
Payload
Rocket body
Debris
Shape & HBR
Box, 0.0 m
Radar Cross Section
0.004 m², Small (<0.1 m²)

Expand to show TLE details & history
Last TLE update: 1 year ago

TLE from 1 year ago
0 TRSI-2
1 52420U 22047AC  24152.20019456  .10643135  25104-5  11320-2 0  9998
2 52420  97.3608 246.9042 0015909 272.9087  87.0390 16.37177951117524
Epoch: 2024-05-31T04:48Z
TLE epoch observation values (Epoch: 2024-05-31T04:48:16.809Z)
Latitude
-0.00009°
Longitude
-74.34853°
Altitude
176.047 km
Speed
7.801 km/s
True Right ascension
16h 27m 37s
True Declination
0° 00' 00"
Sunlit
Object was in full shadow at epoch
Visualization orbit readout
Latitude
Unknown
Longitude
Unknown
Altitude
Unknown
Speed
Unknown
Apparent Right ascension
Unknown
Apparent Declination
Unknown
Sunlit
N/A
Visualization observer readout
Local Sidereal Time
17:43:12
Azimuth
Unknown
Elevation
Unknown
Doppler factor
Unknown
Orbital elements
Apogee altitude
180.547 km
Perigee altitude
159.712 km
Semi-major axis
6,548.267 km
Eccentricity
0.00159
Inclination
97.3608°
RAAN
246.9042°
Arg. of periapsis
272.9087°
True anomaly
87.22108°
Mean anomaly
87.039°
Eccentric anomaly
87.13004°
Mean motion
4.09594 °/min
Orbital period
87.89 mins
BSTAR
0.001132
Loading maneuver chart data...
Computing Atmospheric mass density...

Documentation

Showing up to 5 results
|